Fort Campbell, KY

1:39 AM CST on December 11, 2016 (GMT -0600)
Campbell Army Air Field

Weather History for KHOP - June, 2013

Change the Weather History Date:

Wednesday, June 19, 2013

  Actual Average Record
Temperature  
Mean Temperature 76 °F -  
Max Temperature 86 °F 83 °F 91 °F (1997)
Min Temperature 66 °F 65 °F 58 °F (2008)
Cooling Degree Days 11    
Growing Degree Days 26 (Base 50)    
Moisture  
Dew Point 66 °F    
Average Humidity 70    
Maximum Humidity 100    
Minimum Humidity 43    
Precipitation  
Precipitation 0.00 in - - ()
Sea Level Pressure  
Sea Level Pressure 30.02 in    
Wind  
Wind Speed 3 mph (NNE)    
Max Wind Speed 6 mph    
Max Gust Speed -    
Visibility 10 miles    
Events      
Averages and records for this station are not official NWS values.
T = Trace of Precipitation, MM = Missing Value Source: NWS Daily Summary

Daily Weather History Graph

Daily Weather History Graph

Search for Another Location

Airport or City:

Trip Planner

Search our weather history database for the weather conditions in past years. The results will help you decide how hot, cold, wet, or windy it might be!

Date:

Astronomy

Jun. 19, 2013 Rise Set
Actual Time 5:31 AM CDT 8:11 PM CDT
Civil Twilight 5:00 AM CDT 8:42 PM CDT
Nautical Twilight 4:22 AM CDT 9:20 PM CDT
Astronomical Twilight 3:39 AM CDT 10:03 PM CDT
Moon 4:08 PM CDT (6/19) 2:10 AM CDT (6/19)
Length of Visible Light 15h 41m
Length of Day
14h 40m
Waxing Gibbous, 80% of the Moon is Illuminated
Jun 19
Waxing Gibbous
Jun 23
Full
Jun 29
Last Quarter
Jul 8
New
Jul 15
First Quarter

Hourly Weather History & Observations

Time (CDT) Temp. Heat Index Dew Point Humidity Pressure Visibility Wind Dir Wind Speed Gust Speed Precip Events Conditions
12:58 AM 70.7 °F - 70.7 °F 100% 29.96 in 10.0 mi North 2.3 mph - N/A   Scattered Clouds
1:58 AM 69.4 °F - 69.4 °F 100% 29.95 in 10.0 mi WNW 3.5 mph - N/A   Clear
2:58 AM 68.2 °F - 68.2 °F 100% 29.96 in 10.0 mi NNW 4.6 mph - N/A   Clear
3:58 AM 67.1 °F - 67.1 °F 100% 29.96 in 10.0 mi North 3.5 mph - N/A   Clear
4:58 AM 67.1 °F - 67.1 °F 100% 29.98 in 10.0 mi North 4.6 mph - N/A   Clear
5:58 AM 66.6 °F - 66.6 °F 100% 29.99 in 10.0 mi NNW 5.8 mph - N/A   Clear
6:58 AM 69.3 °F - 68.7 °F 98% 30.01 in 10.0 mi North 2.3 mph - N/A   Clear
7:58 AM 71.8 °F - 68.7 °F 90% 30.02 in 10.0 mi NNE 4.6 mph - N/A   Clear
8:58 AM 75.9 °F - 66.2 °F 72% 30.04 in 10.0 mi NE 4.6 mph - N/A   Clear
9:34 AM 78.8 °F - 66.2 °F 65% 30.05 in 10.0 mi Variable 3.5 mph - N/A   Light Drizzle
9:39 AM 78.8 °F - 66.2 °F 65% 30.05 in 10.0 mi Variable 4.6 mph - N/A   Clear
9:42 AM 78.8 °F - 66.2 °F 65% 30.05 in 10.0 mi Variable 2.3 mph - N/A   Light Drizzle
9:44 AM 78.8 °F - 66.2 °F 65% 30.05 in 10.0 mi Variable 3.5 mph - N/A   Clear
9:58 AM 79.2 °F - 66.0 °F 64% 30.04 in 10.0 mi Variable 5.8 mph - 0.00 in   Clear
10:58 AM 80.6 °F 83.4 °F 68.2 °F 66% 30.05 in 10.0 mi Variable 1.2 mph - N/A   Clear
11:58 AM 82.2 °F 84.0 °F 64.9 °F 56% 30.04 in 10.0 mi Variable 5.8 mph - N/A   Clear
12:25 PM 82.4 °F 84.6 °F 66.2 °F 58% 30.04 in 10.0 mi Variable 4.6 mph - N/A   Light Drizzle
12:34 PM 84.2 °F 86.6 °F 66.2 °F 55% 30.04 in 10.0 mi Variable 2.3 mph - N/A   Clear
12:58 PM 83.5 °F 85.3 °F 65.3 °F 54% 30.03 in 10.0 mi Variable 1.2 mph - 0.00 in   Partly Cloudy
1:58 PM 84.2 °F 85.2 °F 63.3 °F 49% 30.02 in 10.0 mi Calm Calm - N/A   Partly Cloudy
2:58 PM 86.2 °F 87.1 °F 63.3 °F 46% 30.01 in 10.0 mi Variable 2.3 mph - N/A   Clear
3:27 PM 86.0 °F 86.1 °F 60.8 °F 43% 30.01 in 10.0 mi Variable 4.6 mph - N/A   Light Drizzle
3:36 PM 86.0 °F 86.6 °F 62.6 °F 45% 30.01 in 10.0 mi Variable 2.3 mph - N/A   Partly Cloudy
3:58 PM 86.2 °F 87.1 °F 63.1 °F 46% 30.00 in 10.0 mi ESE 3.5 mph - 0.00 in   Scattered Clouds
4:58 PM 85.6 °F 86.6 °F 63.1 °F 47% 30.00 in 10.0 mi Variable 3.5 mph - N/A   Clear
5:58 PM 84.6 °F 85.4 °F 62.6 °F 48% 30.01 in 10.0 mi East 4.6 mph - N/A   Mostly Cloudy
6:58 PM 83.8 °F 85.3 °F 64.4 °F 52% 30.01 in 10.0 mi SSE 5.8 mph - N/A   Mostly Cloudy
7:58 PM 80.2 °F 82.5 °F 66.4 °F 63% 30.02 in 10.0 mi South 4.6 mph - N/A   Scattered Clouds
8:58 PM 76.6 °F - 69.4 °F 78% 30.02 in 10.0 mi NNE 3.5 mph - N/A   Clear
9:58 PM 75.6 °F - 70.2 °F 83% 30.05 in 10.0 mi NNE 1.2 mph - N/A   Clear
10:58 PM 74.1 °F - 69.1 °F 84% 30.05 in 10.0 mi ENE 2.3 mph - N/A   Clear
11:58 PM 72.1 °F - 69.8 °F 92% 30.07 in 10.0 mi ENE 2.3 mph - N/A   Clear